Content
SEND FEEDBACK

Daily
Averages
Monthly
Summary
Netherlands

HAARLEM, NETHERLANDS


Home > Europe > Netherlands
Elevation: 62 feet     Latitude: 52 28N     Longitude: 004 35E

WEATHER
 
SELECT A DAY
Number of Records: 301,990;   Date Range: 7/1/96 - 7/23/14
 
SHARE

PRINT THIS DATA

[ ← Previous Day ]
WEATHER ALMANAC - APRIL 3, 2013
[ Next Day → ]
[ °C ]   °F
Weather ElementAverageHighLow
Temperature39 °F46.4 °F (3:25 pm)32 °F (3:55 am)
Dewpoint21.2 °F23 °F (12:55 am)17.6 °F (6:25 pm)
Humidity48.5 %69 % (7:55 am)24 % (5:00 pm)
Barometer30.03 in30.08 in (8:00 am)29.98 in (4:55 pm)
Wind Speed17.4 mph26.8 mph (2:00 pm)
Wind Gust38 mph (2:55 pm)
Weather ElementAverage
Visibility10.3 mi
Wind DirectionENE (68.9 °)

Weather ElementTotal
Precipitation---
Heating Degree Days25.8 (Base 65)
Averaged from 55 records on April 3, 2013
WEATHER CONDITIONS BREAKOUT
WIND DIRECTION BREAKOUT
WEATHER BY HOUR - APRIL 3, 2013
[ °C ]   °F
Local TimeTemperatureDewpointHumidityBarometerVisibilityWind DirectionWind SpeedGust SpeedPrecipitationEventsConditions
12:55 AM37.4 °F23.0 °F56 %30.04 inENE (70°)12.7 mphClear
1:25 AM35.6 °F23.0 °F60 %30.04 inENE (70°)13.8 mphClear
1:55 AM33.8 °F21.2 °F60 %30.04 inEast (80°)15.0 mphClear
2:00 AM35.0 °F21.0 °F43 %30.05 in22.0 miENE (70°)15.7 mphPartly Cloudy
2:25 AM33.8 °F21.2 °F60 %30.04 inENE (70°)15.0 mphClear
2:55 AM33.8 °F21.2 °F60 %30.04 inENE (70°)15.0 mphClear
3:25 AM33.8 °F21.2 °F60 %30.04 inENE (70°)15.0 mphClear
3:55 AM32.0 °F21.2 °F64 %30.04 in6.2 miENE (70°)15.0 mphPartly Cloudy
4:25 AM33.8 °F21.2 °F60 %30.04 in6.2 miENE (60°)13.8 mphMostly Cloudy
4:55 AM33.8 °F23.0 °F65 %30.04 in6.2 miENE (60°)12.7 mphMostly Cloudy
5:00 AM33.0 °F22.0 °F52 %30.06 in19.0 miENE (60°)15.7 mphMostly Cloudy
5:25 AM33.8 °F23.0 °F65 %30.04 in6.2 miENE (60°)17.3 mphMostly Cloudy
5:55 AM33.8 °F23.0 °F65 %30.04 in6.2 miENE (60°)17.3 mphMostly Cloudy
6:25 AM33.8 °F23.0 °F65 %30.04 in6.2 miENE (60°)16.1 mphMostly Cloudy
6:55 AM33.8 °F23.0 °F65 %30.04 in6.2 miENE (60°)16.1 mphMostly Cloudy
7:25 AM33.8 °F23.0 °F65 %30.06 in6.2 miENE (60°)17.3 mphScattered Clouds
7:55 AM32.0 °F23.0 °F69 %30.06 in6.2 miENE (70°)17.3 mphScattered Clouds
8:00 AM33.0 °F22.0 °F53 %30.08 in16.0 miENE (70°)17.9 mphPartly Cloudy
8:25 AM33.8 °F23.0 °F65 %30.06 in6.2 miENE (70°)18.4 mph29.9 mphPartly Cloudy
8:55 AM33.8 °F23.0 °F65 %30.06 in6.2 miENE (70°)18.4 mphPartly Cloudy
9:25 AM35.6 °F23.0 °F60 %30.06 inENE (70°)18.4 mphClear
9:55 AM35.6 °F21.2 °F56 %30.06 inENE (60°)18.4 mphClear
10:25 AM37.4 °F21.2 °F52 %30.06 inENE (70°)23.0 mphClear
10:55 AM37.4 °F21.2 °F52 %30.06 in6.2 miEast (80°)20.7 mph32.2 mphPartly Cloudy
11:00 AM37.0 °F22.0 °F42 %30.08 in15.0 miENE (70°)17.9 mphPartly Cloudy
11:25 AM39.2 °F23.0 °F52 %30.06 in6.2 miENE (70°)21.9 mph34.5 mphScattered Clouds
11:55 AM41.0 °F21.2 °F45 %30.06 in6.2 miEast (80°)19.6 mph32.2 mphPartly Cloudy
12:25 PM41.0 °F21.2 °F45 %30.04 in6.2 miEast (80°)21.9 mph33.4 mphPartly Cloudy
12:55 PM41.0 °F19.4 °F42 %30.04 in6.2 miEast (80°)23.0 mphPartly Cloudy
1:25 PM42.8 °F19.4 °F39 %30.04 in6.2 miEast (80°)20.7 mphPartly Cloudy
1:55 PM44.6 °F21.2 °F39 %30.04 in6.2 miENE (70°)23.0 mph34.5 mphPartly Cloudy
2:00 PM44.0 °F21.0 °F27 %30.04 in19.0 miENE (60°)26.8 mphPartly Cloudy
2:25 PM44.6 °F19.4 °F37 %30.04 inENE (60°)23.0 mph34.5 mphClear
2:55 PM44.6 °F19.4 °F37 %30.01 inENE (60°)26.5 mph38.0 mphClear
3:25 PM46.4 °F19.4 °F34 %30.01 inENE (60°)23.0 mph35.7 mphClear
3:55 PM44.6 °F21.2 °F39 %30.01 inNE (50°)24.2 mphClear
4:25 PM46.4 °F19.4 °F34 %30.01 inENE (60°)23.0 mphClear
4:55 PM46.4 °F21.2 °F37 %29.98 inENE (60°)20.7 mphClear
5:00 PM46.0 °F21.0 °F24 %30.00 in22.0 miNE (50°)24.6 mphScattered Clouds
5:25 PM46.4 °F21.2 °F37 %29.98 inENE (60°)19.6 mph32.2 mphClear
5:55 PM46.4 °F21.2 °F37 %29.98 inENE (60°)21.9 mphClear
6:25 PM46.4 °F17.6 °F32 %29.98 inEast (80°)20.7 mphClear
6:55 PM44.6 °F19.4 °F37 %29.98 inENE (70°)18.4 mphClear
7:25 PM44.6 °F19.4 °F37 %29.98 inEast (80°)16.1 mphClear
7:55 PM42.8 °F19.4 °F39 %29.98 inENE (70°)13.8 mphClear
8:00 PM43.0 °F20.0 °F26 %30.00 in22.0 miENE (70°)13.4 mphPartly Cloudy
8:25 PM42.8 °F19.4 °F39 %29.98 inENE (70°)13.8 mphClear
8:55 PM41.0 °F19.4 °F42 %29.98 inENE (70°)15.0 mphClear
9:25 PM41.0 °F21.2 °F45 %29.98 inEast (80°)10.4 mphClear
9:55 PM39.2 °F21.2 °F49 %30.01 inEast (80°)9.2 mphClear
10:25 PM39.2 °F21.2 °F49 %30.01 inEast (80°)10.4 mphClear
10:55 PM39.2 °F21.2 °F49 %30.01 inEast (80°)9.2 mphClear
11:00 PM39.0 °F22.0 °F36 %30.01 in22.0 miEast (80°)8.9 mphOvercast
11:25 PM37.4 °F21.2 °F52 %29.98 inEast (80°)8.1 mphClear
11:55 PM37.4 °F21.2 °F52 %30.01 inEast (80°)11.5 mphClear
Hourly data recorded from EHAM, located miles away from Haarlem, Netherlands







STORIES FROM OUR PARTNERS